RH
7 7 7 7 7 9 9 11 19 19 19 21 27 33 36 37 40 42 48 52 60 70 72 74 70 70 60 59 72 84 81 98 97 98 98 97 87 96 98 96 98 95 84 95
7 7 8 8 8 10 11 16 20 19 16 32 34 33 34 37 38 43 47 53 61 69 74 78 74 68 65 54 67 88 79 91 98 99 90 81 94 92 96 96 97 98 95 97
7 8 8 8 8 10 10 13 22 21 23 28 32 35 35 37 40 47 51 58 62 63 72 74 74 62 59 55 65 68 76 84 84 94 98 94 96 95 91 92 97 97 98 95
8 8 9 9 9 9 10 16 22 22 31 30 31 33 37 39 42 46 52 57 65 65 75 71 71 62 62 58 61 69 73 97 92 97 93 84 91 96 96 96 98 96 98 95
8 8 9 10 9 11 9 20 22 23 26 28 30 34 38 41 43 48 54 60 63 71 74 75 81 72 70 62 62 70 76 97 90 92 82 82 86 87 88 94 98 98 96 97
9 9 10 10 10 10 14 18 21 21 25 29 33 39 39 41 43 47 50 55 60 65 69 75 80 77 74 69 64 73 80 91 88 91 75 70 85 97 96 96 97 98 97 97
10 9 11 11 10 11 12 16 18 19 27 27 29 31 33 39 43 49 48 51 54 58 62 64 67 71 72 61 66 70 78 87 91 87 71 92 95 89 96 96 97 97 96 97
11 10 11 12 11 11 10 13 18 19 24 23 21 25 27 28 34 40 44 48 48 52 55 64 69 57 60 58 66 68 73 78 72 75 83 87 89 88 94 96 96 94 97 97
12 11 11 12 12 12 10 10 15 20 20 21 22 23 25 32 33 34 40 39 40 44 54 55 66 72 69 67 65 65 67 71 71 73 83 90 88 81 87 89 96 93 95 93
13 12 12 12 12 13 11 10 11 14 17 19 19 21 27 26 30 39 38 44 38 39 49 58 64 71 69 79 82 83 81 81 86 83 86 85 81 74 76 83 90 86 88 88
14 14 13 13 12 12 11 11 11 13 16 19 20 21 21 23 27 36 34 41 38 43 55 63 69 69 74 83 81 86 87 91 92 88 90 93 78 68 70 76 74 75 73 76
16 15 14 15 13 12 12 11 12 14 17 20 21 22 22 23 26 29 38 40 40 48 56 62 67 69 73 81 88 82 87 92 94 93 96 93 89 85 86 84 78 75 70 65
17 16 15 15 15 13 13 11 11 16 22 26 24 23 25 24 25 29 32 34 34 42 53 60 70 71 75 85 88 93 94 93 94 97 85 88 91 88 86 83 82 80 73 68
19 18 17 16 16 14 14 13 12 15 22 26 26 25 24 24 25 32 34 35 38 47 55 61 70 74 72 77 80 80 82 83 89 93 86 88 86 82 79 76 75 74 74 72
22 20 18 18 17 16 15 15 15 14 16 22 25 27 25 25 25 31 40 38 40 47 54 64 72 75 78 81 85 79 73 76 79 83 81 80 76 77 76 74 73 70 69 68
24 22 20 19 18 17 17 20 20 17 17 25 29 29 27 25 26 31 46 47 44 47 54 66 70 73 81 74 68 55 51 55 59 62 62 59 58 60 64 67 69 68 67 66
26 25 22 21 20 19 18 18 18 18 19 22 24 24 25 24 23 33 45 50 48 51 59 68 73 71 69 62 63 54 55 59 61 64 64 65 67 66 63 62 60 59 61 63
28 27 25 24 22 20 21 20 18 17 20 18 23 21 19 23 25 30 40 48 53 52 63 68 61 62 61 65 59 57 60 62 64 66 68 67 67 70 73 71 69 66 62 60
31 30 27 24 22 22 21 18 17 17 18 20 21 25 24 24 26 40 40 46 53 56 58 60 59 61 59 58 55 59 66 70 70 69 69 71 71 71 71 73 74 73 72 71
34 31 28 26 24 21 19 17 17 16 17 20 23 25 29 29 31 40 37 44 50 59 55 58 60 57 53 52 55 64 69 71 75 79 77 75 75 73 72 73 75 76 75 74
34 31 29 24 22 20 18 17 17 22 24 23 26 28 30 36 36 39 41 46 50 57 53 54 62 62 51 52 54 63 68 69 69 71 75 79 82 83 82 80 80 80 80 80
34 33 28 24 22 21 19 26 21 24 24 26 24 28 30 35 37 40 44 46 51 54 47 55 62 55 47 50 55 61 65 65 64 62 62 67 72 76 80 82 84 84 84 83
35 33 27 23 23 21 21 23 21 23 24 26 27 28 32 36 40 40 42 46 50 44 52 56 53 48 44 48 56 64 63 64 65 64 66 72 75 76 77 78 80 81 82 82
36 32 26 29 29 27 28 26 23 21 23 25 27 31 31 35 38 40 41 44 43 48 54 53 46 42 43 47 53 62 65 67 71 71 71 73 76 77 77 74 70 66 63 62
38 33 27 31 28 26 25 21 18 21 25 26 29 33 32 38 39 39 38 37 43 47 46 42 39 42 43 45 51 58 65 69 74 76 74 72 73 72 65 62 60 59 60 60
37 34 32 30 30 30 26 21 19 23 25 29 30 34 35 35 36 34 40 41 40 38 38 37 38 40 43 46 50 55 61 67 73 76 75 72 69 65 61 64 66 65 63 61
39 36 30 30 29 29 28 22 22 25 27 29 30 32 35 33 36 39 36 35 35 34 35 37 40 41 43 47 51 56 58 62 70 75 75 73 69 62 56 59 58 58 57 56